Home > Time Zones > World Clock > Weather > Oman > Seeb > Past weeks

Flag Weather past 2 weeks in Seeb, Oman

Now
82 °F

Sunny.


Feels Like: 86 °F
Forecast: 74 / 86 °F
Wind: 17 mph from Northeast

Location: International Airport

Current Time: Nov 24, 2014 at 4:36:40 PM

Latest Report: Nov 24, 2014 at 3:50 PM


Visibility: 10 mi

Pressure: 29.89 "Hg

Humidity: 66%

Dew point: 70 °F

Location of SeebLocation

Historic Weather in Seeb — Graph

°F

Seeb temperature yesterday

Maximum temperature yesterday: 84 °F (at 9:50 AM)
Minimum temperature yesterday: 68 °F (at 5:50 AM)
Average temperature yesterday: 78 °F

Past Weeks' High & Low Weather Summary

 TemperatureHumidityPressure
High86 °F (Nov 20, 10:50 AM)88% (Nov 22, 2:50 AM)30.15 "Hg (Nov 22, 2:50 AM)
Low66 °F (Nov 11, 2:50 AM)30% (Nov 12, 11:50 AM)29.89 "Hg (Nov 23, 1:50 PM)
Average77 °F61%30.02 "Hg
* Reported Nov 9 2:50 PM — Nov 24 2:50 PM, Seeb, Weather by CustomWeather, © 2014

Note: Actual official high and low records may vary slightly from our data, if they occured in-between our weather recording intervals... More about our weather records

Advertising

Seeb weather history for previous 24 hours

 ConditionsComfort  
Time TempWeatherWind HumidityBarometerVisibility
2:50 PM
Nov 24
82 °FSunny.18 mph66%29.92 "Hg10 mi
1:50 PM82 °FSunny.20 mph66%29.92 "Hg10 mi
12:50 PM82 °FPassing clouds.13 mph66%29.95 "HgN/A
11:50 AM84 °FPassing clouds.8 mph48%29.98 "HgN/A
10:50 AM84 °FClear.6 mph45%30.01 "Hg5 mi
9:50 AM84 °FClear.2 mph40%30.01 "Hg5 mi
8:50 AM82 °FClear.2 mph48%30.01 "Hg5 mi
7:50 AM77 °FClear.No wind51%29.98 "Hg5 mi
6:50 AM70 °FClear.No wind60%29.95 "Hg5 mi
5:50 AM70 °FClear.1 mph57%29.92 "Hg10 mi
4:50 AM70 °FPassing clouds.3 mph60%29.89 "HgN/A
3:50 AM72 °FClear.5 mph53%29.89 "Hg10 mi
2:50 AM73 °FClear.2 mph50%29.89 "Hg6 mi
1:50 AM72 °FClear.3 mph61%29.89 "Hg5 mi
12:50 AM72 °FClear.No wind65%29.92 "Hg10 mi
11:50 PM
Nov 23
75 °FClear.No wind57%29.92 "Hg10 mi
10:50 PM75 °FPassing clouds.5 mph57%29.92 "HgN/A
9:50 PM77 °FPassing clouds.3 mph54%29.95 "HgN/A
8:50 PM79 °FClear.No wind61%29.95 "Hg10 mi
7:50 PM79 °FClear.No wind61%29.95 "Hg10 mi
6:50 PM79 °FClear.2 mph61%29.92 "Hg10 mi
5:50 PM81 °FClear.7 mph54%29.89 "Hg10 mi
4:50 PM82 °FSunny.9 mph55%29.89 "Hg10 mi
Weather by CustomWeather, © 2014

See weather overviewHow to use our weather pages